SHT6DE EGCC-EGNS

Flight info

Callsign SHT6DE
Flight time 0h 23m
Altitude 16000
Route EKLAD Y53 WAL M146 LUSOD DCT IOM
Aircraft A320/M-SDE3FGHIRWY/LB1

Departure

Time 2026-05-07 22:54
Airport Manchester Airport (EGCC)

Arrival

Time 2026-05-07 23:17
Airport Isle of Man Airport (EGNS)
Time Latitude Longitude Altitude Speed Heading
2026-05-07 22:40 53.36001 -2.27140 255 ft 0 kts 89°
2026-05-07 22:46 53.36001 -2.27165 255 ft 4 kts 94°
2026-05-07 22:47 53.36006 -2.27209 255 ft 4 kts 114°
2026-05-07 22:47 53.36020 -2.27241 255 ft 4 kts 168°
2026-05-07 22:47 53.36012 -2.27242 255 ft 4 kts 179°
2026-05-07 22:47 53.35989 -2.27242 255 ft 1 kts 179°
2026-05-07 22:51 53.35974 -2.27241 255 ft 4 kts 179°
2026-05-07 22:51 53.35923 -2.27234 255 ft 11 kts 173°
2026-05-07 22:51 53.35831 -2.27205 255 ft 14 kts 156°
2026-05-07 22:52 53.35809 -2.27062 255 ft 15 kts 68°
2026-05-07 22:52 53.35843 -2.26957 255 ft 16 kts 56°
2026-05-07 22:52 53.35912 -2.26803 255 ft 16 kts 57°
2026-05-07 22:52 53.35984 -2.26643 255 ft 18 kts 51°
2026-05-07 22:53 53.36070 -2.26463 255 ft 21 kts 51°
2026-05-07 22:53 53.36133 -2.26280 255 ft 17 kts 96°
2026-05-07 22:53 53.36052 -2.26144 255 ft 15 kts 162°
2026-05-07 22:53 53.35916 -2.26377 261 ft 58 kts 231°
2026-05-07 22:54 53.35525 -2.27193 255 ft 120 kts 231°
2026-05-07 22:54 53.34892 -2.28500 308 ft 159 kts 231°
2026-05-07 22:54 53.34245 -2.29853 1054 ft 145 kts 229°
2026-05-07 22:54 53.33615 -2.31181 1502 ft 150 kts 227°
2026-05-07 22:55 53.32915 -2.32638 1700 ft 172 kts 227°
2026-05-07 22:55 53.32266 -2.34533 1904 ft 204 kts 253°
2026-05-07 22:55 53.32192 -2.37058 2220 ft 231 kts 270°
2026-05-07 22:55 53.32266 -2.39882 2698 ft 253 kts 270°
2026-05-07 22:56 53.32348 -2.42865 3570 ft 259 kts 270°
2026-05-07 22:56 53.32131 -2.45849 4563 ft 259 kts 253°
2026-05-07 22:56 53.31795 -2.48816 5569 ft 261 kts 270°
2026-05-07 22:56 53.32195 -2.51752 6544 ft 262 kts 294°
2026-05-07 22:57 53.33022 -2.54491 7452 ft 264 kts 296°
2026-05-07 22:57 53.33870 -2.57244 8322 ft 268 kts 296°
2026-05-07 22:57 53.34732 -2.60040 9160 ft 273 kts 296°
2026-05-07 22:57 53.35606 -2.62893 9985 ft 277 kts 296°
2026-05-07 22:58 53.36492 -2.65808 10417 ft 296 kts 296°
2026-05-07 22:58 53.37460 -2.69006 10634 ft 318 kts 296°
2026-05-07 22:58 53.38476 -2.72389 11196 ft 324 kts 296°
2026-05-07 22:58 53.39484 -2.75739 12161 ft 321 kts 296°
2026-05-07 22:59 53.40505 -2.79139 12975 ft 323 kts 296°
2026-05-07 22:59 53.41503 -2.82479 13713 ft 327 kts 295°
2026-05-07 22:59 53.42526 -2.85905 14380 ft 330 kts 295°
2026-05-07 22:59 53.43570 -2.89409 15041 ft 333 kts 295°
2026-05-07 23:00 53.44593 -2.92849 15677 ft 336 kts 295°
2026-05-07 23:00 53.45655 -2.96420 15981 ft 350 kts 295°
2026-05-07 23:00 53.46777 -3.00186 16053 ft 370 kts 295°
2026-05-07 23:00 53.47956 -3.04153 16052 ft 390 kts 295°
2026-05-07 23:01 53.49196 -3.08340 16050 ft 409 kts 295°
2026-05-07 23:01 53.50488 -3.12704 16049 ft 424 kts 295°
2026-05-07 23:01 53.51815 -3.17195 16374 ft 428 kts 295°
2026-05-07 23:01 53.53093 -3.21516 17347 ft 393 kts 295°
2026-05-07 23:02 53.54254 -3.25450 18204 ft 361 kts 295°
2026-05-07 23:02 53.55388 -3.29312 18264 ft 376 kts 295°
2026-05-07 23:02 53.56584 -3.33404 17845 ft 401 kts 295°
2026-05-07 23:02 53.57802 -3.37578 17354 ft 393 kts 295°
2026-05-07 23:03 53.58997 -3.41670 16962 ft 384 kts 295°
2026-05-07 23:03 53.60154 -3.45634 16735 ft 371 kts 295°
2026-05-07 23:03 53.61275 -3.49475 16479 ft 361 kts 295°
2026-05-07 23:03 53.62374 -3.53259 16222 ft 358 kts 295°
2026-05-07 23:04 53.63460 -3.57007 15894 ft 353 kts 295°
2026-05-07 23:04 53.64534 -3.60711 15387 ft 349 kts 295°
2026-05-07 23:04 53.65779 -3.64208 14853 ft 348 kts 304°
2026-05-07 23:04 53.67181 -3.67537 14321 ft 346 kts 304°
2026-05-07 23:05 53.68569 -3.70841 13777 ft 345 kts 303°
2026-05-07 23:05 53.69952 -3.74145 13186 ft 342 kts 303°
2026-05-07 23:05 53.71314 -3.77412 12677 ft 339 kts 303°
2026-05-07 23:05 53.72663 -3.80654 12146 ft 336 kts 303°
2026-05-07 23:06 53.74002 -3.83878 11625 ft 334 kts 303°
2026-05-07 23:06 53.75333 -3.87081 11105 ft 331 kts 303°
2026-05-07 23:06 53.76651 -3.90253 10640 ft 328 kts 303°
2026-05-07 23:06 53.77924 -3.93315 10517 ft 315 kts 303°
2026-05-07 23:07 53.79156 -3.96287 10390 ft 303 kts 303°
2026-05-07 23:07 53.80345 -3.99161 10265 ft 292 kts 303°
2026-05-07 23:07 53.81488 -4.01924 10079 ft 284 kts 303°
2026-05-07 23:07 53.82500 -4.04377 9996 ft 279 kts 303°
2026-05-07 23:08 53.83609 -4.07079 9878 ft 281 kts 302°
2026-05-07 23:08 53.84733 -4.09834 9409 ft 283 kts 303°
2026-05-07 23:08 53.85846 -4.12555 9077 ft 280 kts 303°
2026-05-07 23:08 53.86957 -4.15270 8692 ft 280 kts 303°
2026-05-07 23:09 53.88062 -4.17958 8091 ft 276 kts 303°
2026-05-07 23:09 53.89161 -4.20626 7465 ft 275 kts 303°
2026-05-07 23:09 53.90247 -4.23272 6853 ft 273 kts 303°
2026-05-07 23:09 53.91325 -4.25910 6253 ft 271 kts 303°
2026-05-07 23:10 53.92403 -4.28520 5630 ft 269 kts 306°
2026-05-07 23:10 53.93740 -4.30698 5136 ft 267 kts 324°
2026-05-07 23:10 53.95418 -4.32070 4631 ft 269 kts 343°
2026-05-07 23:10 53.97268 -4.32471 4124 ft 266 kts 360°
2026-05-07 23:11 53.99057 -4.32465 3983 ft 248 kts 359°
2026-05-07 23:11 54.00754 -4.32479 3589 ft 241 kts 359°
2026-05-07 23:11 54.02426 -4.32504 3339 ft 239 kts 359°
2026-05-07 23:11 54.04093 -4.32530 3157 ft 239 kts 359°
2026-05-07 23:12 54.05758 -4.32554 2967 ft 239 kts 359°
2026-05-07 23:12 54.07421 -4.32578 2697 ft 238 kts 359°
2026-05-07 23:12 54.09067 -4.32602 2444 ft 235 kts 359°
2026-05-07 23:12 54.10691 -4.32695 2177 ft 231 kts 349°
2026-05-07 23:13 54.12031 -4.33967 2023 ft 218 kts 304°
2026-05-07 23:13 54.12456 -4.36303 2010 ft 206 kts 259°
2026-05-07 23:13 54.11837 -4.38368 2012 ft 192 kts 223°
2026-05-07 23:13 54.11023 -4.40060 1983 ft 180 kts 248°
2026-05-07 23:14 54.10876 -4.42101 2041 ft 169 kts 261°
2026-05-07 23:14 54.10640 -4.44023 1991 ft 164 kts 252°
2026-05-07 23:14 54.10389 -4.45913 1849 ft 162 kts 253°
2026-05-07 23:14 54.10157 -4.47745 1680 ft 150 kts 253°
2026-05-07 23:15 54.09948 -4.49412 1475 ft 142 kts 253°
2026-05-07 23:15 54.09744 -4.51041 1287 ft 140 kts 253°
2026-05-07 23:15 54.09544 -4.52646 1099 ft 138 kts 253°
2026-05-07 23:15 54.09344 -4.54251 902 ft 138 kts 253°
2026-05-07 23:16 54.09146 -4.55838 717 ft 136 kts 253°
2026-05-07 23:16 54.08950 -4.57407 532 ft 135 kts 253°
2026-05-07 23:16 54.08818 -4.58462 406 ft 134 kts 254°
2026-05-07 23:16 54.08661 -4.59737 257 ft 132 kts 255°
2026-05-07 23:17 54.08483 -4.61197 45 ft 118 kts 254°
2026-05-07 23:17 54.08338 -4.62287 41 ft 68 kts 258°
2026-05-07 23:17 54.08295 -4.62635 43 ft 19 kts 258°
2026-05-07 23:17 54.08293 -4.62799 42 ft 14 kts 287°
2026-05-07 23:18 54.08319 -4.62911 43 ft 4 kts 291°
2026-05-07 23:18 54.08326 -4.62940 41 ft 2 kts 293°
2026-05-07 23:18 54.08337 -4.62980 40 ft 6 kts 299°
2026-05-07 23:18 54.08370 -4.63077 43 ft 12 kts 299°
2026-05-07 23:19 54.08380 -4.63096 43 ft 1 kts 334°
2026-05-07 23:19 54.08387 -4.63087 43 ft 6 kts 28°
2026-05-07 23:19 54.08416 -4.63012 43 ft 10 kts 46°
2026-05-07 23:19 54.08485 -4.63004 43 ft 12 kts 351°
2026-05-07 23:20 54.08569 -4.63040 44 ft 12 kts 333°
2026-05-07 23:20 54.08644 -4.63155 46 ft 14 kts 314°
2026-05-07 23:20 54.08657 -4.63216 46 ft 0 kts 244°
2026-05-07 23:20 54.08650 -4.63231 46 ft 0 kts 225°
2026-05-07 23:21 54.08643 -4.63242 44 ft 1 kts 225°
2026-05-07 23:21 54.08633 -4.63261 46 ft 0 kts 225°
2026-05-07 23:21 54.08629 -4.63267 46 ft 0 kts 225°